Wind_Speed
86 86 88 89 90 91 92 92 93 93 92 92 92 92 92 91 92 92 93 93 94 95 96 97 97 98 98 98 97 98 99 99 98 95 93 92 92 93 94 94 94 95 100 106 107 104 105 109 110 113 116 120 123 127 130 132 134 135 136 137 139 141 144
86 87 88 89 91 92 92 92 92 92 91 91 91 90 90 90 90 91 91 92 93 94 95 96 96 96 96 96 96 96 97 96 95 92 90 89 89 90 91 91 92 92 95 101 103 101 102 106 107 108 111 115 118 122 126 129 131 133 134 135 136 138 141
86 87 89 90 91 92 92 91 91 91 90 90 89 89 89 89 89 90 90 91 92 93 94 94 95 95 95 94 94 95 94 92 90 88 86 85 86 87 88 89 89 89 91 95 99 99 100 103 104 105 108 111 113 117 121 124 127 130 132 133 134 135 137
87 88 89 90 91 91 91 91 90 90 89 89 88 88 88 88 88 88 89 90 91 92 93 94 94 93 93 92 92 92 91 88 86 84 82 82 83 84 86 86 86 86 87 90 94 97 99 101 103 103 105 107 109 111 115 119 122 125 128 130 131 131 133
87 89 90 91 91 91 91 90 90 89 89 88 88 88 88 87 87 87 88 89 90 91 92 93 92 91 90 89 89 88 86 84 82 80 79 79 80 82 83 84 84 84 85 87 90 94 97 100 101 101 102 104 106 107 110 114 117 120 123 125 126 128 129
88 89 90 91 91 91 90 90 90 89 89 89 88 88 87 86 86 86 87 88 90 91 91 91 90 89 88 87 86 84 82 80 78 77 76 76 78 79 80 81 81 82 83 85 88 91 95 98 99 99 99 101 102 103 104 107 111 114 117 119 121 123 125
88 89 90 91 91 91 90 90 90 90 89 89 88 87 86 85 85 85 86 87 89 90 90 90 89 87 86 84 83 81 79 77 75 74 74 74 75 76 77 78 79 80 81 83 85 88 92 95 97 97 96 97 98 98 100 102 105 108 111 114 115 117 120
89 90 91 91 91 91 90 90 90 90 90 89 88 87 85 84 84 85 86 87 88 89 89 88 86 84 83 82 79 77 75 74 73 72 72 72 73 73 75 76 77 78 80 81 83 85 88 91 94 95 94 94 95 96 97 98 100 102 106 109 110 112 115
89 90 91 91 91 90 90 90 90 90 89 88 87 86 84 83 84 84 85 86 86 87 87 86 84 82 80 78 77 75 73 71 70 69 69 70 70 72 73 75 76 77 79 79 80 82 84 87 90 93 93 92 92 93 94 95 95 97 101 104 106 108 112
90 91 91 91 90 90 89 89 90 90 89 88 86 85 83 82 83 84 85 85 85 85 85 84 81 79 77 76 75 73 70 69 68 67 67 67 69 70 72 73 75 77 77 77 77 79 81 84 88 91 91 90 91 91 90 91 92 93 97 101 104 107 111
90 91 91 90 89 89 89 89 90 89 88 87 86 84 82 80 81 83 84 84 84 84 83 82 80 77 74 72 72 71 68 67 66 65 64 65 67 69 71 72 74 75 75 74 75 76 79 82 85 88 88 88 89 88 87 88 91 93 96 99 102 104 108
90 91 90 89 88 88 88 89 90 88 87 86 86 84 82 79 79 80 81 82 82 81 81 81 79 76 72 70 69 68 67 65 63 62 63 64 66 68 70 71 72 72 72 72 72 74 77 80 82 84 86 86 86 85 86 88 91 93 95 96 98 100 104
90 90 89 88 87 87 88 89 89 87 86 85 85 84 82 79 78 78 78 79 79 78 78 79 78 76 73 69 66 65 64 62 61 61 61 62 65 67 69 70 70 69 70 70 70 73 76 78 79 81 83 84 83 84 85 88 91 92 92 92 95 97 101
90 89 88 87 87 87 87 88 88 86 85 84 84 83 80 78 77 77 77 77 76 75 76 76 76 74 72 69 65 62 61 60 59 59 60 62 64 67 68 68 67 67 67 68 69 72 75 77 77 77 80 82 82 82 84 87 90 91 90 90 92 95 98
89 87 86 86 86 85 85 86 86 85 84 83 83 81 79 77 77 76 76 75 74 74 74 74 73 71 70 67 64 60 58 57 57 57 59 61 64 65 66 66 66 66 65 65 67 69 72 73 74 75 77 79 81 81 82 85 88 88 87 86 88 92 96
87 86 85 85 85 84 84 85 85 84 83 82 81 79 76 75 76 76 75 74 73 73 73 71 69 68 67 65 62 58 55 54 55 56 58 61 62 62 62 63 64 63 63 64 66 67 68 69 71 72 74 77 78 79 80 83 84 84 83 82 85 90 94
85 84 85 85 84 83 83 83 84 83 82 81 79 76 74 74 74 75 74 73 72 71 70 68 66 64 63 62 59 56 54 53 53 55 58 59 60 59 60 62 61 60 62 63 64 65 65 66 68 70 72 75 77 78 80 82 82 80 78 78 81 87 91
84 83 84 84 83 83 82 82 83 82 80 79 77 75 72 72 73 73 72 71 70 69 67 65 62 60 59 59 57 54 53 52 52 54 57 57 57 57 58 59 59 59 61 62 62 63 64 64 65 66 69 72 74 76 79 81 80 78 76 76 78 82 85
82 83 84 83 83 82 82 81 82 81 79 77 75 73 71 71 71 71 70 70 68 66 64 61 59 57 56 56 56 54 53 51 51 53 55 55 55 56 56 57 58 59 59 59 60 62 62 62 62 63 65 68 70 72 76 79 78 75 75 75 76 78 80
82 82 83 83 82 82 82 81 80 79 77 74 73 72 70 69 69 69 68 67 66 64 61 59 56 55 54 54 54 54 52 51 51 52 53 54 54 53 54 57 58 57 56 58 59 60 60 60 60 60 61 63 65 67 72 76 74 71 71 73 73 75 77
81 81 81 82 82 82 82 81 79 77 75 72 71 70 69 68 67 66 65 65 63 61 59 57 54 53 53 53 53 53 52 51 51 51 51 52 51 50 53 57 56 54 55 57 58 58 58 58 58 58 59 60 61 62 65 71 72 69 68 69 70 71 74
81 79 79 80 81 82 82 80 77 74 72 71 70 69 68 67 66 64 62 62 61 59 57 56 54 52 51 52 52 53 53 52 51 49 49 49 48 50 54 55 53 53 55 55 56 57 57 57 57 57 58 58 59 58 60 65 69 68 68 68 67 68 71
79 78 78 79 80 82 82 79 75 72 70 69 68 68 67 66 64 62 60 60 59 58 56 55 53 52 51 51 52 52 52 52 50 48 47 47 48 51 53 53 52 53 54 54 56 56 56 57 57 57 57 58 58 57 56 60 64 65 65 67 67 66 67
78 76 76 77 79 81 81 78 74 71 68 67 66 66 66 66 63 60 58 57 57 57 57 55 53 52 51 51 51 52 51 51 49 48 47 47 48 50 51 51 51 52 52 54 55 55 55 57 56 56 57 58 58 56 54 56 60 62 63 64 65 64 64
76 75 74 75 78 80 80 77 73 70 67 65 65 65 65 64 63 60 57 56 55 55 56 56 55 53 51 51 51 51 50 50 49 48 48 48 48 48 49 49 50 51 51 53 54 54 55 56 55 55 56 58 59 58 55 54 57 60 61 62 63 62 61
75 73 73 74 77 78 78 76 72 69 66 64 63 64 63 62 61 59 57 55 53 53 54 55 55 54 52 51 50 50 50 50 49 48 48 48 48 48 48 48 49 50 51 52 53 54 54 53 52 53 55 57 58 59 56 54 56 58 59 59 60 60 59
74 72 72 73 76 77 76 75 71 67 65 63 62 62 61 60 59 58 57 56 54 52 52 54 55 54 53 52 51 50 50 50 49 48 48 48 48 48 48 48 49 49 51 52 52 53 52 51 51 52 53 55 56 57 56 54 54 56 56 56 57 59 57
73 72 71 72 74 75 74 74 71 67 64 63 62 61 60 59 58 57 57 57 56 54 53 52 53 53 53 52 52 51 51 50 50 49 48 48 47 48 48 48 49 49 50 51 51 51 50 49 48 49 50 51 53 54 54 54 53 53 54 54 55 56 55
71 70 70 71 72 72 72 72 71 67 64 62 60 59 58 57 56 55 56 56 56 55 54 54 53 52 52 52 52 52 51 51 51 50 49 48 48 48 48 48 49 49 50 50 50 49 48 46 45 45 46 47 50 51 51 52 53 52 52 53 54 54 54
70 69 68 69 71 71 71 70 69 67 65 62 60 58 57 56 55 54 55 55 54 52 53 54 53 53 52 52 52 52 51 51 51 51 50 49 49 48 48 48 49 49 50 50 49 48 47 46 45 44 44 45 47 48 48 50 51 52 52 52 52 53 52
68 67 67 67 68 69 70 69 68 68 67 64 62 60 58 57 55 53 55 56 55 52 51 52 52 52 52 52 52 52 51 51 51 51 50 49 49 48 48 48 48 48 48 49 49 48 47 47 46 45 45 46 46 47 47 48 49 50 53 52 51 51 50
68 66 65 65 64 65 66 67 66 66 66 64 63 62 61 59 56 54 54 56 56 54 52 52 51 51 51 51 51 51 51 51 50 50 49 49 48 48 47 47 48 48 48 48 49 48 48 47 46 46 46 46 47 47 47 48 48 50 52 52 50 49 48
68 65 64 64 63 63 64 63 63 63 62 62 62 62 62 61 59 56 54 54 55 54 53 52 52 51 50 50 50 50 50 50 49 49 48 48 48 47 46 46 46 47 47 47 48 48 47 46 46 46 45 46 46 46 45 47 48 49 51 52 50 48 48
70 66 64 63 63 63 63 62 61 60 59 59 60 61 61 61 60 58 56 55 54 54 54 53 52 51 50 50 49 49 49 48 48 47 47 46 46 45 45 44 45 45 46 46 46 46 46 45 45 44 44 45 45 44 43 45 47 48 50 50 49 48 47
72 68 65 63 62 62 62 61 60 58 57 57 58 59 60 61 60 59 57 56 54 54 54 53 52 50 49 48 48 48 48 47 47 46 45 44 43 43 43 42 42 43 43 43 44 44 44 44 43 42 41 43 43 42 42 44 45 47 48 48 47 47 46
71 69 66 64 63 62 62 61 59 58 57 57 57 57 58 59 59 58 57 56 55 54 53 53 51 50 49 48 47 46 46 46 46 45 44 42 42 41 41 40 40 40 41 41 42 42 42 42 41 39 39 40 41 39 40 43 44 45 45 45 46 46 45
Wind_Direction
298 298 298 298 298 297 296 296 295 294 293 291 290 289 289 288 287 287 286 285 285 284 283 282 281 281 280 279 278 277 277 276 275 275 274 273 272 270 268 266 264 262 262 262 261 258 256 255 253 252 251 250 250 250 249 249 249 248 247 246 246 246 245
299 299 299 299 299 298 298 297 296 294 293 292 291 290 290 289 288 288 287 287 286 285 284 283 282 281 280 280 279 278 277 277 276 276 275 273 272 270 268 266 264 262 261 262 261 259 258 256 254 252 251 250 250 249 249 249 249 249 248 247 246 245 245
300 300 300 300 300 299 298 297 296 295 293 292 292 291 291 290 290 289 289 288 287 286 284 283 283 282 281 281 280 279 278 278 277 276 275 273 271 269 267 265 264 262 261 261 261 260 258 257 255 253 252 251 249 249 249 249 249 249 249 248 247 246 245
301 301 301 301 300 300 299 298 296 295 294 293 293 293 292 291 291 291 290 289 288 286 285 284 284 283 283 282 281 279 279 278 277 276 275 273 271 268 267 265 263 262 261 260 260 260 258 257 256 254 253 252 250 249 249 249 249 249 249 249 249 248 247
302 302 302 302 301 300 300 298 297 296 295 295 294 294 293 293 293 292 291 290 288 287 286 286 285 284 283 282 281 280 280 279 278 276 274 272 270 268 266 265 263 262 261 259 259 259 258 258 256 255 254 253 252 250 249 249 249 249 249 250 250 250 249
303 303 303 303 302 301 300 299 298 298 297 296 296 295 295 294 294 293 292 290 289 289 288 287 286 285 284 283 282 281 281 279 278 276 274 271 269 267 266 265 263 262 260 259 258 258 258 258 257 256 255 254 253 252 251 250 250 250 250 250 250 250 250
304 304 304 304 303 302 301 300 299 299 298 297 297 296 296 296 295 294 292 292 291 290 289 288 287 286 285 284 283 282 281 280 278 276 274 271 269 268 266 264 263 261 260 259 258 258 258 258 258 257 256 255 254 254 252 251 251 251 250 250 250 250 250
305 305 305 305 304 303 302 301 300 299 299 298 298 298 297 297 296 295 294 293 292 291 290 288 288 287 286 285 284 283 282 280 278 276 274 272 270 268 266 264 263 261 260 258 258 257 258 258 259 258 257 256 255 254 253 252 251 251 251 250 249 249 249
307 306 306 305 304 303 302 302 301 300 299 299 299 298 298 298 297 296 295 294 293 292 290 289 288 287 287 286 285 284 282 281 279 277 275 272 270 268 266 264 263 261 260 259 258 257 257 258 258 259 258 257 256 255 254 253 252 251 252 252 250 249 248
307 307 306 305 304 303 303 302 301 300 300 300 299 299 299 299 299 298 297 295 294 292 290 289 289 288 287 287 286 284 283 281 280 277 275 273 270 268 266 264 263 261 260 259 258 258 257 257 258 258 258 258 257 256 255 255 253 252 251 251 251 250 248
308 307 306 305 304 304 303 302 301 301 301 301 300 300 300 300 300 299 298 296 294 293 291 290 289 288 288 287 286 285 284 282 280 278 275 273 270 268 266 264 263 262 261 260 259 258 258 257 257 258 258 258 258 257 256 255 254 252 251 250 250 250 250
308 307 306 305 305 305 304 303 302 302 302 301 301 301 301 301 301 299 298 296 294 293 293 292 291 290 289 287 286 286 285 283 281 278 276 273 271 268 266 265 264 263 262 261 260 259 258 257 257 257 258 258 257 257 256 255 254 253 252 251 251 251 251
308 307 306 306 306 305 304 303 303 303 303 303 303 303 303 303 302 299 297 295 294 293 293 292 292 291 291 289 288 287 286 284 282 279 276 273 271 269 267 266 265 264 263 262 260 259 258 258 257 258 258 258 257 256 255 255 254 253 253 252 252 252 252
308 307 307 306 306 305 305 304 303 303 304 304 304 304 305 304 302 300 297 296 295 294 293 292 292 292 292 291 290 289 287 285 283 280 276 273 271 269 268 267 266 265 263 262 261 259 259 258 258 257 257 257 257 256 255 255 254 254 253 252 252 253 253
308 308 307 307 306 306 305 304 304 304 305 305 305 306 306 305 302 300 298 297 296 295 294 293 293 293 293 293 292 290 288 286 283 280 276 273 271 270 269 269 267 266 264 262 261 260 260 260 259 258 258 258 257 256 255 255 254 254 253 253 253 253 253
308 308 307 307 306 306 306 305 305 305 306 306 306 307 307 305 302 300 298 298 297 296 295 294 295 295 294 294 292 291 288 285 281 278 275 273 272 271 271 269 268 267 266 263 261 260 260 260 260 260 260 260 260 259 257 256 255 254 253 253 252 252 253
308 308 308 307 307 307 307 306 306 306 307 307 307 307 306 304 302 300 299 298 297 296 296 297 297 296 295 294 292 290 287 283 280 278 275 273 273 272 271 269 269 267 265 263 262 261 259 258 258 259 259 260 261 260 260 259 258 256 254 252 251 251 252
309 309 308 308 308 308 307 307 307 307 308 308 308 307 306 304 301 300 300 299 298 298 298 298 298 297 295 293 291 289 286 283 281 278 276 275 274 273 271 270 269 267 265 264 263 261 260 258 257 256 257 258 258 259 259 260 259 259 257 254 252 252 252
310 310 309 309 309 308 308 308 307 308 308 309 308 306 305 303 302 301 301 300 300 299 299 299 298 297 295 293 291 289 286 284 282 279 278 277 275 274 273 272 269 268 267 266 264 262 261 259 258 257 257 257 258 258 259 259 258 258 258 256 254 253 252
311 310 310 310 309 309 308 308 308 308 309 309 308 306 305 303 302 302 302 301 300 300 299 299 299 297 295 293 291 289 287 285 282 280 279 278 277 277 275 272 270 270 269 268 265 264 262 260 258 257 256 256 258 259 261 261 259 257 256 256 255 254 253
311 311 311 310 310 309 308 308 309 309 310 309 307 306 305 304 303 303 302 301 301 300 300 300 299 297 296 294 292 290 288 285 283 281 280 280 280 278 275 273 274 274 272 270 270 268 266 263 261 259 257 256 256 256 259 262 262 260 258 257 256 255 254
312 312 312 311 310 309 308 308 309 310 310 309 308 306 305 304 303 303 303 302 301 301 301 300 299 298 296 294 291 290 288 287 285 284 283 283 281 277 275 275 277 276 274 273 273 271 270 268 266 265 263 260 258 255 256 259 261 261 261 259 256 255 254
312 313 312 311 310 309 308 309 310 310 310 309 308 306 305 304 304 304 303 302 302 302 301 300 299 298 296 293 291 290 289 288 288 287 285 282 279 277 277 278 278 276 276 275 274 273 273 272 270 269 267 265 262 259 257 258 260 260 260 260 258 256 255
313 313 312 312 310 308 308 309 310 311 311 310 308 307 306 305 305 305 304 303 303 302 302 301 299 298 296 293 292 291 290 290 289 288 285 281 279 278 278 278 278 277 277 276 275 275 274 273 272 271 270 268 267 264 260 259 260 260 259 259 259 257 256
313 313 313 312 310 309 309 310 310 311 311 310 309 307 306 305 305 305 304 303 303 302 302 301 299 298 296 294 293 292 291 290 289 287 284 283 281 280 279 278 278 277 276 276 275 274 273 272 272 271 270 269 269 267 264 261 261 260 259 259 260 258 257
314 314 314 313 311 309 309 310 310 311 311 310 309 307 306 305 305 305 304 303 303 302 301 300 299 298 296 295 293 292 290 289 288 287 285 284 282 281 280 278 277 276 275 274 273 271 271 270 270 269 268 268 268 267 266 263 261 260 260 260 260 259 257
314 314 315 313 311 310 310 309 310 311 311 310 309 307 306 305 305 305 304 304 303 302 300 299 298 297 296 295 293 292 290 289 288 286 285 284 283 281 280 278 277 275 274 272 271 270 268 267 266 265 265 266 266 266 266 263 261 260 260 259 259 259 256
315 315 316 314 312 311 310 310 310 312 312 311 309 308 306 305 305 305 305 304 304 303 301 299 297 296 296 295 293 292 291 289 288 287 285 284 283 282 280 279 277 276 274 273 272 270 267 264 261 260 261 262 264 265 265 264 262 260 260 259 259 258 256
316 316 316 314 312 311 310 310 311 312 311 310 309 307 306 305 305 305 304 303 303 303 302 300 298 297 296 294 293 292 291 290 289 288 286 285 284 282 281 281 280 279 277 276 275 273 271 269 265 262 261 261 262 262 263 264 263 262 260 259 258 258 256
317 318 317 315 313 312 311 310 311 311 311 310 309 307 305 305 305 305 304 302 302 301 301 300 299 298 296 295 294 293 292 291 290 289 288 287 286 284 284 282 281 281 280 279 279 278 278 276 274 271 268 266 265 264 263 262 262 262 261 259 257 257 256
318 318 317 316 314 313 312 312 312 312 312 311 310 308 307 306 307 307 305 304 303 303 301 299 298 298 297 296 294 293 292 291 290 289 288 287 286 285 284 283 282 282 282 281 281 281 280 279 277 276 273 271 269 267 265 263 262 261 261 259 258 256 255
319 319 318 316 314 313 312 312 312 312 311 311 310 309 309 308 308 308 307 305 305 304 303 301 299 298 297 296 295 294 293 291 290 290 289 288 287 286 285 285 284 284 283 282 281 280 279 278 276 275 272 270 269 267 265 264 262 260 260 260 258 257 255
320 320 318 317 315 313 312 312 311 311 310 310 309 309 309 309 309 309 308 307 306 305 304 302 301 300 299 297 295 294 293 292 291 290 289 289 288 287 286 285 283 282 281 280 279 278 276 275 273 272 270 268 267 265 263 261 260 259 259 259 259 257 255
320 320 319 318 316 314 313 312 311 310 310 310 309 309 309 309 310 310 309 308 307 306 305 303 302 301 300 298 296 295 293 292 291 290 288 287 286 285 284 282 281 279 278 277 276 275 274 272 271 269 268 267 265 264 262 260 259 258 258 258 258 257 255
319 320 319 318 316 314 313 312 312 311 311 310 309 309 309 309 310 310 310 309 308 307 305 304 303 302 300 298 297 295 294 293 291 290 288 287 285 284 282 281 279 277 276 275 274 273 272 271 269 268 266 265 264 263 261 259 258 257 257 256 256 255 254
319 319 319 318 317 315 314 313 313 313 312 311 310 310 310 310 310 310 310 309 308 307 306 304 303 302 301 299 297 296 295 293 292 291 290 288 287 285 284 282 280 278 277 276 274 273 272 271 270 268 266 264 263 261 260 258 257 256 255 255 255 254 253
Height
10048 10041 10035 10029 10022 10015 10009 10002 9996 9990 9985 9980 9975 9970 9966 9961 9957 9952 9947 9942 9938 9931 9926 9921 9916 9912 9907 9905 9904 9900 9896 9896 9897 9899 9901 9901 9901 9898 9897 9898 9898 9897 9885 9868 9875 9893 9892 9887 9891 9894 9895 9898 9901 9904 9907 9913 9920 9926 9931 9937 9943 9948 9953
10034 10028 10021 10015 10008 10000 9994 9988 9982 9976 9971 9965 9960 9956 9951 9947 9942 9937 9932 9927 9921 9914 9908 9904 9899 9894 9891 9889 9888 9884 9881 9880 9881 9883 9884 9883 9882 9879 9876 9877 9878 9877 9871 9858 9857 9871 9871 9864 9870 9876 9875 9877 9883 9884 9886 9891 9897 9903 9909 9915 9921 9926 9931
10020 10014 10007 10000 9993 9986 9980 9974 9968 9962 9956 9950 9946 9942 9937 9932 9926 9922 9916 9910 9904 9897 9891 9887 9882 9878 9875 9873 9872 9867 9865 9865 9865 9866 9867 9865 9862 9860 9857 9857 9859 9858 9856 9848 9843 9849 9850 9843 9847 9856 9854 9855 9863 9866 9867 9872 9877 9883 9888 9893 9899 9906 9912
10007 10000 9994 9986 9979 9973 9966 9960 9953 9947 9941 9936 9932 9927 9922 9917 9912 9907 9901 9894 9887 9880 9874 9870 9866 9862 9860 9858 9855 9851 9849 9850 9850 9850 9850 9847 9844 9842 9840 9839 9841 9841 9840 9837 9830 9828 9829 9825 9826 9834 9836 9837 9844 9849 9851 9854 9858 9862 9868 9873 9879 9888 9894
9993 9986 9979 9972 9965 9958 9952 9945 9938 9932 9926 9921 9917 9912 9907 9903 9898 9892 9885 9878 9871 9864 9858 9854 9850 9847 9844 9842 9838 9835 9834 9834 9834 9834 9833 9830 9826 9824 9823 9822 9824 9825 9824 9822 9817 9812 9810 9807 9806 9814 9820 9820 9825 9832 9837 9839 9841 9845 9850 9856 9862 9869 9876
9980 9972 9965 9958 9951 9944 9937 9930 9923 9916 9910 9906 9901 9897 9893 9888 9883 9877 9869 9862 9854 9847 9841 9837 9834 9831 9828 9825 9823 9820 9819 9818 9818 9818 9815 9813 9810 9808 9808 9807 9807 9808 9808 9806 9803 9798 9794 9790 9789 9796 9804 9806 9809 9817 9823 9827 9829 9831 9835 9840 9846 9851 9857
9966 9958 9951 9944 9936 9929 9922 9915 9908 9901 9896 9891 9886 9882 9878 9873 9868 9861 9854 9846 9838 9831 9825 9820 9817 9815 9811 9809 9808 9806 9805 9803 9803 9802 9799 9797 9795 9793 9793 9792 9791 9792 9792 9790 9789 9786 9781 9776 9773 9778 9787 9792 9796 9802 9807 9810 9814 9816 9818 9822 9829 9835 9838
9952 9944 9936 9929 9922 9915 9908 9901 9894 9887 9881 9877 9872 9868 9864 9859 9853 9846 9838 9831 9823 9815 9809 9804 9801 9799 9796 9794 9793 9792 9790 9789 9787 9786 9784 9781 9781 9779 9778 9776 9776 9775 9775 9775 9775 9773 9770 9765 9760 9761 9770 9778 9782 9785 9789 9793 9799 9801 9800 9803 9811 9817 9818
9938 9930 9923 9915 9908 9901 9894 9887 9880 9873 9867 9863 9858 9854 9850 9845 9838 9831 9823 9816 9808 9800 9793 9789 9787 9785 9782 9780 9779 9777 9776 9774 9773 9772 9769 9768 9767 9765 9762 9761 9760 9759 9760 9761 9762 9761 9758 9755 9749 9747 9753 9762 9766 9769 9773 9778 9785 9789 9785 9784 9791 9796 9795
9925 9917 9910 9903 9895 9888 9881 9873 9866 9859 9854 9849 9844 9840 9837 9832 9823 9815 9807 9799 9793 9786 9778 9775 9773 9771 9770 9767 9764 9763 9762 9760 9759 9758 9755 9754 9752 9750 9748 9746 9744 9744 9746 9748 9749 9748 9747 9744 9738 9734 9740 9747 9749 9754 9760 9763 9768 9772 9770 9766 9769 9771 9769
9912 9905 9897 9890 9883 9875 9868 9859 9851 9845 9840 9834 9829 9825 9824 9820 9812 9801 9792 9784 9776 9770 9764 9760 9759 9758 9757 9755 9751 9750 9749 9747 9746 9744 9742 9739 9737 9735 9733 9731 9730 9730 9733 9735 9736 9736 9734 9732 9727 9724 9728 9733 9735 9740 9747 9748 9748 9750 9750 9749 9751 9752 9748
9899 9892 9884 9877 9870 9863 9854 9845 9837 9832 9827 9821 9814 9809 9807 9806 9800 9789 9780 9771 9763 9757 9750 9746 9743 9742 9742 9742 9740 9738 9736 9734 9733 9731 9729 9726 9723 9720 9718 9717 9718 9718 9720 9723 9724 9722 9720 9718 9717 9715 9716 9719 9723 9728 9731 9730 9728 9729 9732 9735 9737 9738 9733
9886 9879 9871 9864 9858 9850 9841 9831 9823 9818 9814 9807 9801 9795 9792 9790 9784 9775 9766 9758 9751 9746 9740 9734 9730 9727 9726 9727 9728 9727 9724 9722 9721 9718 9716 9713 9709 9706 9703 9704 9705 9706 9708 9710 9710 9709 9706 9704 9706 9706 9704 9706 9710 9713 9713 9712 9711 9713 9718 9723 9722 9721 9719
9874 9866 9859 9851 9845 9838 9829 9818 9810 9806 9801 9794 9788 9783 9779 9774 9767 9759 9751 9744 9739 9735 9729 9723 9719 9716 9714 9714 9715 9715 9713 9710 9708 9706 9703 9699 9695 9692 9691 9691 9693 9694 9697 9697 9696 9695 9692 9691 9695 9695 9693 9692 9695 9698 9699 9697 9696 9698 9703 9709 9709 9707 9705
9861 9854 9847 9839 9832 9826 9818 9807 9798 9794 9789 9782 9776 9771 9766 9760 9752 9744 9737 9731 9726 9722 9717 9712 9709 9706 9703 9702 9702 9702 9702 9699 9696 9692 9689 9685 9682 9680 9679 9679 9680 9681 9684 9684 9682 9681 9679 9679 9682 9683 9680 9679 9680 9683 9685 9683 9682 9684 9689 9696 9698 9693 9688
9849 9842 9835 9827 9820 9813 9806 9795 9786 9781 9777 9770 9764 9760 9755 9747 9738 9730 9725 9720 9715 9710 9705 9702 9700 9697 9693 9690 9689 9690 9689 9687 9683 9679 9675 9672 9670 9670 9669 9667 9667 9669 9671 9669 9668 9669 9670 9669 9669 9669 9668 9666 9665 9668 9669 9669 9668 9671 9677 9685 9684 9677 9671
9838 9830 9822 9814 9807 9800 9794 9784 9774 9769 9765 9759 9753 9749 9744 9735 9726 9718 9713 9708 9703 9699 9695 9692 9690 9687 9683 9679 9677 9677 9676 9674 9672 9667 9663 9660 9659 9659 9658 9655 9657 9659 9657 9656 9656 9658 9659 9659 9659 9659 9657 9654 9653 9653 9653 9654 9654 9658 9665 9671 9668 9661 9658
9826 9818 9809 9801 9794 9786 9781 9773 9764 9758 9754 9748 9741 9737 9732 9724 9715 9708 9702 9697 9692 9688 9686 9683 9680 9677 9673 9668 9665 9665 9663 9662 9661 9656 9651 9650 9650 9648 9646 9645 9647 9647 9644 9645 9647 9646 9646 9648 9649 9650 9648 9644 9642 9641 9640 9640 9641 9645 9650 9654 9652 9649 9648
9814 9806 9796 9787 9781 9773 9767 9762 9754 9747 9743 9738 9730 9725 9720 9713 9705 9698 9692 9686 9682 9678 9675 9673 9670 9667 9663 9657 9654 9653 9652 9651 9650 9645 9641 9640 9639 9637 9636 9636 9635 9634 9633 9634 9634 9634 9634 9636 9638 9639 9638 9634 9631 9629 9627 9627 9630 9634 9635 9637 9637 9638 9638
9802 9794 9784 9775 9768 9760 9754 9750 9744 9737 9732 9727 9720 9713 9709 9703 9695 9689 9683 9676 9672 9669 9666 9664 9661 9657 9653 9648 9643 9642 9641 9640 9639 9635 9632 9630 9628 9628 9626 9623 9622 9623 9623 9622 9620 9621 9623 9624 9625 9627 9627 9624 9621 9619 9615 9614 9618 9623 9623 9623 9624 9625 9625
9790 9783 9774 9763 9755 9748 9742 9738 9734 9728 9721 9716 9709 9702 9697 9692 9685 9680 9674 9667 9662 9659 9657 9654 9651 9647 9643 9639 9634 9631 9630 9629 9628 9627 9624 9621 9620 9619 9615 9611 9611 9612 9611 9608 9607 9608 9608 9610 9612 9614 9614 9614 9613 9611 9607 9604 9605 9609 9610 9610 9611 9611 9612
9779 9772 9764 9753 9744 9736 9729 9726 9724 9718 9711 9705 9698 9691 9686 9681 9676 9671 9665 9658 9653 9650 9647 9644 9641 9638 9634 9630 9626 9622 9620 9619 9618 9618 9617 9614 9612 9609 9604 9602 9603 9602 9599 9598 9596 9595 9595 9596 9598 9599 9600 9600 9601 9601 9600 9597 9596 9597 9597 9597 9599 9600 9599
9768 9762 9754 9744 9733 9723 9717 9714 9712 9708 9702 9694 9687 9680 9674 9669 9666 9662 9657 9650 9644 9640 9638 9634 9631 9629 9625 9621 9617 9613 9611 9610 9609 9609 9608 9606 9603 9599 9595 9594 9594 9592 9590 9588 9586 9584 9584 9584 9585 9586 9587 9587 9587 9589 9590 9588 9587 9587 9586 9584 9586 9588 9589
9758 9752 9744 9735 9723 9712 9705 9703 9700 9697 9692 9685 9677 9670 9663 9658 9655 9652 9648 9642 9636 9631 9627 9624 9621 9619 9616 9613 9609 9606 9603 9602 9600 9599 9598 9596 9595 9592 9588 9587 9585 9583 9581 9579 9576 9576 9574 9573 9574 9575 9575 9574 9574 9576 9578 9578 9577 9576 9575 9573 9574 9577 9580
9748 9742 9735 9725 9713 9702 9695 9691 9689 9686 9681 9675 9667 9660 9653 9648 9644 9642 9639 9634 9629 9624 9618 9614 9611 9609 9607 9604 9601 9598 9595 9593 9592 9590 9588 9586 9585 9583 9581 9579 9576 9574 9573 9570 9568 9568 9565 9564 9565 9565 9564 9564 9563 9563 9566 9567 9566 9565 9565 9564 9564 9566 9570
9737 9731 9725 9715 9703 9693 9685 9680 9677 9675 9671 9665 9658 9651 9644 9639 9635 9632 9628 9625 9621 9617 9612 9606 9602 9599 9597 9595 9593 9590 9587 9585 9583 9581 9579 9577 9576 9574 9573 9571 9568 9567 9565 9562 9561 9559 9557 9557 9557 9556 9555 9555 9553 9552 9555 9556 9555 9554 9555 9556 9555 9556 9560
9726 9721 9715 9705 9693 9684 9676 9669 9667 9665 9660 9655 9649 9642 9636 9631 9626 9622 9618 9614 9612 9609 9605 9599 9594 9590 9588 9586 9584 9581 9579 9577 9575 9573 9571 9569 9567 9565 9564 9562 9560 9558 9556 9554 9552 9551 9549 9550 9549 9548 9547 9546 9544 9543 9544 9545 9544 9544 9546 9547 9546 9545 9549
9716 9710 9704 9694 9683 9674 9666 9658 9655 9654 9650 9644 9639 9633 9627 9622 9618 9614 9609 9605 9601 9599 9595 9591 9587 9582 9579 9576 9574 9571 9569 9567 9565 9564 9562 9560 9559 9557 9554 9552 9551 9548 9546 9544 9542 9541 9540 9541 9541 9540 9539 9537 9535 9534 9535 9534 9534 9535 9536 9537 9537 9536 9538
9707 9700 9694 9684 9673 9665 9657 9649 9644 9642 9640 9635 9630 9625 9619 9614 9611 9607 9602 9597 9593 9589 9585 9581 9578 9574 9571 9567 9564 9561 9560 9557 9555 9553 9552 9551 9549 9547 9544 9542 9540 9537 9535 9533 9531 9530 9529 9529 9529 9529 9529 9528 9526 9526 9526 9525 9524 9525 9526 9527 9527 9527 9528
9698 9691 9684 9674 9663 9654 9647 9641 9635 9631 9628 9625 9621 9616 9611 9606 9603 9599 9594 9589 9586 9584 9579 9573 9569 9565 9562 9559 9555 9552 9550 9548 9545 9543 9542 9540 9538 9536 9534 9532 9530 9527 9525 9522 9521 9520 9519 9518 9518 9518 9519 9518 9517 9517 9517 9517 9516 9516 9516 9517 9518 9518 9520
9689 9682 9675 9666 9656 9645 9636 9630 9625 9619 9614 9611 9607 9604 9600 9596 9594 9591 9585 9578 9575 9574 9571 9566 9562 9558 9554 9550 9547 9544 9541 9539 9536 9534 9532 9531 9529 9527 9525 9523 9520 9518 9516 9513 9511 9510 9509 9509 9508 9508 9508 9508 9508 9507 9508 9508 9507 9507 9506 9506 9508 9510 9511
9678 9672 9664 9657 9650 9640 9631 9624 9617 9611 9604 9599 9595 9591 9587 9584 9583 9581 9577 9570 9565 9563 9560 9557 9553 9550 9547 9543 9539 9535 9532 9530 9528 9525 9523 9521 9519 9518 9516 9514 9511 9509 9507 9505 9503 9502 9501 9501 9500 9500 9500 9500 9499 9499 9499 9499 9498 9498 9496 9496 9499 9501 9503
9665 9662 9654 9646 9639 9632 9624 9618 9612 9606 9599 9593 9587 9582 9577 9573 9571 9570 9567 9562 9557 9553 9550 9547 9544 9541 9538 9534 9531 9528 9525 9522 9519 9517 9515 9513 9511 9509 9507 9506 9503 9501 9499 9497 9496 9494 9493 9493 9493 9492 9492 9492 9491 9491 9491 9490 9490 9489 9488 9488 9490 9492 9494
9649 9648 9644 9637 9629 9622 9616 9610 9605 9600 9594 9587 9581 9574 9569 9564 9560 9558 9556 9553 9548 9544 9540 9537 9535 9532 9529 9525 9522 9519 9517 9514 9512 9510 9508 9506 9504 9502 9500 9499 9497 9495 9493 9491 9489 9487 9486 9486 9485 9485 9484 9483 9483 9483 9483 9482 9481 9481 9480 9480 9482 9484 9485
9636 9634 9631 9627 9620 9613 9607 9601 9596 9592 9587 9581 9575 9569 9562 9556 9552 9548 9545 9542 9539 9535 9530 9527 9525 9522 9520 9517 9514 9511 9508 9506 9504 9502 9500 9499 9497 9495 9493 9492 9490 9488 9486 9484 9481 9480 9479 9478 9477 9478 9477 9475 9475 9475 9475 9474 9473 9473 9472 9473 9474 9475 9477
9627 9622 9619 9615 9610 9603 9597 9592 9587 9583 9578 9573 9568 9563 9556 9549 9544 9540 9536 9533 9530 9526 9522 9518 9515 9512 9510 9507 9505 9502 9500 9497 9494 9493 9491 9490 9488 9486 9485 9483 9481 9479 9477 9475 9473 9472 9470 9469 9469 9469 9469 9467 9467 9468 9467 9466 9465 9465 9465 9466 9467 9468 9470